Highgate, VT

6:58 PM EST on December 14, 2019 (GMT -0500)
Franklin County State

Weather History for KFSO - November, 2019

Change the Weather History Date:

Thursday, November 14, 2019

  Actual Average (KPBG) Record (KPBG)
Temperature  
Mean Temperature 22 °F -  
Max Temperature 34 °F 43 °F 64 °F (1959)
Min Temperature 11 °F 28 °F 12 °F (1971)
Degree Days  
Heating Degree Days 42    
Moisture  
Dew Point 14 °F    
Average Humidity 61    
Maximum Humidity 79    
Minimum Humidity 39    
Precipitation  
Precipitation 0.00 in - - ()
Sea Level Pressure  
Sea Level Pressure 30.28 in    
Wind  
Wind Speed 7 mph (SSE)    
Max Wind Speed 16 mph    
Max Gust Speed 28 mph    
Visibility 10 miles    
Events Snow    
Averages and records for this station are not official NWS values.
T = Trace of Precipitation, MM = Missing Value Source: NWS Daily Summary

Daily Weather History Graph

Daily Weather History Graph

Search for Another Location

Airport or City:

Astronomy

Nov. 14, 2019 Rise Set
Actual Time 6:48 AM EST 4:24 PM EST
Civil Twilight 6:16 AM EST 4:56 PM EST
Nautical Twilight 5:41 AM EST 5:31 PM EST
Astronomical Twilight 5:06 AM EST 6:06 PM EST
Moon 6:05 PM EST 8:43 AM EST
Length of Visible Light 10h 39m
Length of Day
9h 36m
Waning Gibbous, 95% of the Moon is Illuminated
Nov 14
Waning Gibbous
Nov 19
Last Quarter
Nov 26
New
Dec 4
First Quarter
Dec 12
Full

Hourly Weather History & Observations

Time (EST) Temp. Windchill Dew Point Humidity Pressure Visibility Wind Dir Wind Speed Gust Speed Precip Events Conditions
12:15 AM 11.1 °F 3.1 °F 5.7 °F 79% 30.43 in 10.0 mi NW 4.6 mph - N/A   Unknown
12:36 AM 12.2 °F 4.3 °F 6.4 °F 78% 30.43 in 10.0 mi NW 4.6 mph - N/A   Unknown
12:55 AM 12.9 °F 1.6 °F 6.8 °F 77% 30.41 in 10.0 mi NW 8.1 mph - N/A   Unknown
1:15 AM 13.5 °F 4.4 °F 6.8 °F 75% 30.41 in 10.0 mi NW 5.8 mph - N/A   Unknown
1:35 AM 13.8 °F 8.0 °F 7.3 °F 75% 30.41 in 10.0 mi NW 3.5 mph - N/A   Unknown
1:56 AM 14.4 °F 8.6 °F 7.5 °F 74% 30.40 in 10.0 mi NW 3.5 mph - N/A   Unknown
2:15 AM 14.9 °F 9.2 °F 7.5 °F 73% 30.40 in 10.0 mi NW 3.5 mph - N/A   Unknown
2:55 AM 15.3 °F 5.4 °F 8.1 °F 73% 30.38 in 10.0 mi ESE 6.9 mph - N/A   Unknown
3:16 AM 15.8 °F 10.2 °F 8.2 °F 72% 30.38 in 10.0 mi ESE 3.5 mph - N/A   Unknown
3:35 AM 16.3 °F 6.7 °F 8.6 °F 72% 30.38 in 10.0 mi ESE 6.9 mph - N/A   Unknown
3:55 AM 16.2 °F 6.5 °F 8.4 °F 72% 30.37 in 10.0 mi ESE 6.9 mph - N/A   Unknown
4:16 AM 16.2 °F 9.0 °F 8.2 °F 71% 30.37 in 10.0 mi SE 4.6 mph - N/A   Unknown
4:35 AM 16.7 °F 8.3 °F 8.6 °F 70% 30.37 in 10.0 mi ESE 5.8 mph - N/A   Unknown
4:55 AM 17.4 °F 9.1 °F 8.6 °F 68% 30.36 in 10.0 mi ESE 5.8 mph - N/A   Unknown
5:15 AM 17.8 °F 9.6 °F 8.6 °F 67% 30.35 in 10.0 mi ESE 5.8 mph - N/A   Unknown
5:35 AM 18.5 °F 9.3 °F 9.0 °F 66% 30.34 in 10.0 mi ESE 6.9 mph - N/A   Unknown
5:56 AM 18.5 °F 11.7 °F 9.1 °F 67% 30.34 in 10.0 mi SE 4.6 mph - N/A   Unknown
6:15 AM 18.9 °F 10.8 °F 8.6 °F 64% 30.33 in 10.0 mi SE 5.8 mph - N/A   Unknown
6:36 AM 19.2 °F 11.3 °F 8.4 °F 63% 30.33 in 10.0 mi SE 5.8 mph - N/A   Unknown
6:55 AM 18.9 °F 10.8 °F 8.4 °F 64% 30.33 in 10.0 mi SE 5.8 mph - N/A   Unknown
7:16 AM 19.9 °F 13.4 °F 8.6 °F 61% 30.32 in 10.0 mi ESE 4.6 mph - N/A   Unknown
7:36 AM 20.3 °F 13.8 °F 8.6 °F 61% 30.33 in 10.0 mi SE 4.6 mph - N/A   Unknown
7:55 AM 20.8 °F 13.2 °F 10.0 °F 63% 30.34 in 10.0 mi SSE 5.8 mph - N/A   Unknown
8:15 AM 21.9 °F 13.4 °F 8.8 °F 57% 30.33 in 10.0 mi SE 6.9 mph - N/A   Unknown
8:35 AM 23.2 °F 13.3 °F 8.6 °F 54% 30.33 in 10.0 mi SSE 9.2 mph - N/A   Unknown
8:56 AM 24.8 °F 16.9 °F 8.8 °F 51% 30.32 in 10.0 mi South 6.9 mph - N/A   Unknown
9:15 AM 27.1 °F 17.5 °F 6.8 °F 42% 30.32 in 10.0 mi South 10.4 mph 23.0 mph N/A   Unknown
9:35 AM 27.1 °F 16.9 °F 8.8 °F 46% 30.32 in 10.0 mi South 11.5 mph 27.6 mph N/A   Unknown
9:55 AM 27.5 °F 15.4 °F 7.3 °F 43% 30.32 in 10.0 mi South 16.1 mph 23.0 mph N/A   Unknown
10:16 AM 28.4 °F 18.5 °F 7.3 °F 41% 30.31 in 10.0 mi South 11.5 mph 20.7 mph N/A   Unknown
10:36 AM 28.9 °F 19.8 °F 6.8 °F 39% 30.30 in 10.0 mi South 10.4 mph 23.0 mph N/A   Clear
10:55 AM 28.9 °F 19.2 °F 7.7 °F 41% 30.30 in 10.0 mi South 11.5 mph 24.2 mph N/A   Scattered Clouds
11:15 AM 29.1 °F 19.4 °F 8.6 °F 42% 30.29 in 10.0 mi South 11.5 mph 20.7 mph N/A   Scattered Clouds
11:36 AM 29.7 °F 22.8 °F 9.5 °F 43% 30.28 in 10.0 mi South 6.9 mph 17.3 mph N/A   Scattered Clouds
11:55 AM 29.7 °F 19.6 °F 10.4 °F 45% 30.28 in 10.0 mi South 12.7 mph 20.7 mph N/A   Scattered Clouds
12:15 PM 29.1 °F 20.6 °F 13.8 °F 53% 30.28 in 10.0 mi SSW 9.2 mph 23.0 mph N/A Snow Light Snow
12:36 PM 29.3 °F 20.2 °F 14.5 °F 54% 30.27 in 10.0 mi South 10.4 mph 18.4 mph N/A   Scattered Clouds
12:55 PM 30.0 °F 21.7 °F 13.5 °F 50% 30.26 in 10.0 mi South 9.2 mph 19.6 mph N/A   Scattered Clouds
1:16 PM 30.2 °F 20.2 °F 13.3 °F 49% 30.25 in 10.0 mi South 12.7 mph 21.9 mph N/A   Scattered Clouds
1:56 PM 31.6 °F 23.1 °F 15.8 °F 52% 30.24 in 10.0 mi South 10.4 mph 19.6 mph N/A   Scattered Clouds
2:15 PM 32.0 °F 22.5 °F 17.1 °F 54% 30.23 in 10.0 mi South 12.7 mph 19.6 mph N/A   Mostly Cloudy
2:36 PM 32.0 °F 23.0 °F 18.5 °F 58% 30.23 in 10.0 mi South 11.5 mph 18.4 mph N/A   Scattered Clouds
2:56 PM 31.6 °F 21.6 °F 20.3 °F 63% 30.23 in 10.0 mi South 13.8 mph 20.7 mph N/A   Mostly Cloudy
3:16 PM 31.6 °F 22.1 °F 20.5 °F 63% 30.22 in 10.0 mi South 12.7 mph 17.3 mph N/A   Mostly Cloudy
3:35 PM 31.1 °F 23.7 °F 21.9 °F 69% 30.22 in 10.0 mi South 8.1 mph - N/A   Mostly Cloudy
3:55 PM 31.1 °F 23.7 °F 22.5 °F 70% 30.22 in 7.0 mi South 8.1 mph 19.6 mph N/A Snow Light Snow
4:16 PM 31.1 °F 23.7 °F 22.5 °F 70% 30.22 in 10.0 mi South 8.1 mph - N/A   Mostly Cloudy
4:36 PM 31.1 °F 23.7 °F 21.9 °F 69% 30.22 in 10.0 mi South 8.1 mph - N/A Snow Light Snow
4:56 PM 31.8 °F 24.6 °F 21.0 °F 64% 30.22 in 10.0 mi South 8.1 mph - N/A   Mostly Cloudy
5:15 PM 32.0 °F 23.0 °F 21.2 °F 64% 30.22 in 10.0 mi South 11.5 mph 18.4 mph N/A   Mostly Cloudy
5:35 PM 32.0 °F 23.0 °F 22.1 °F 67% 30.22 in 10.0 mi South 11.5 mph 19.6 mph N/A   Mostly Cloudy
5:55 PM 32.0 °F 24.2 °F 22.1 °F 67% 30.21 in 10.0 mi South 9.2 mph - N/A   Mostly Cloudy
6:15 PM 32.5 °F 24.8 °F 21.7 °F 64% 30.21 in 10.0 mi South 9.2 mph - N/A   Mostly Cloudy
6:35 PM 32.9 °F 25.3 °F 21.4 °F 63% 30.20 in 10.0 mi South 9.2 mph - N/A   Mostly Cloudy
6:55 PM 33.3 °F 26.4 °F 21.2 °F 61% 30.20 in 10.0 mi South 8.1 mph - N/A   Mostly Cloudy
7:16 PM 33.3 °F 25.7 °F 21.4 °F 62% 30.20 in 10.0 mi South 9.2 mph - N/A   Scattered Clouds
7:56 PM 33.8 °F 26.4 °F 20.8 °F 59% 30.19 in 10.0 mi South 9.2 mph - N/A   Scattered Clouds
8:15 PM 33.6 °F 24.6 °F 20.8 °F 59% 30.19 in 10.0 mi South 12.7 mph 17.3 mph N/A   Mostly Cloudy
8:35 PM 33.8 °F 27.0 °F 20.5 °F 58% 30.18 in 10.0 mi South 8.1 mph 16.1 mph N/A   Mostly Cloudy
8:56 PM 33.8 °F 27.7 °F 20.7 °F 59% 30.18 in 10.0 mi South 6.9 mph 17.3 mph N/A   Mostly Cloudy
9:15 PM 33.8 °F 26.4 °F 20.8 °F 59% 30.18 in 10.0 mi South 9.2 mph 16.1 mph N/A   Mostly Cloudy
9:35 PM 33.8 °F 27.0 °F 21.2 °F 60% 30.18 in 10.0 mi South 8.1 mph - N/A   Mostly Cloudy
9:55 PM 33.8 °F 26.4 °F 21.7 °F 61% 30.18 in 10.0 mi South 9.2 mph - N/A   Mostly Cloudy
10:16 PM 34.2 °F 27.5 °F 22.1 °F 61% 30.17 in 10.0 mi South 8.1 mph 16.1 mph N/A   Mostly Cloudy
10:35 PM 34.3 °F 27.7 °F 22.1 °F 61% 30.17 in 10.0 mi South 8.1 mph 16.1 mph N/A   Mostly Cloudy
10:55 PM 34.7 °F 26.9 °F 22.1 °F 60% 30.16 in 10.0 mi South 10.4 mph 17.3 mph N/A   Mostly Cloudy
11:15 PM 34.7 °F 28.8 °F 21.9 °F 60% 30.15 in 10.0 mi South 6.9 mph - N/A   Mostly Cloudy
11:35 PM 34.7 °F 28.8 °F 21.9 °F 60% 30.15 in 10.0 mi South 6.9 mph - N/A   Mostly Cloudy
11:56 PM 34.9 °F 28.3 °F 21.7 °F 59% 30.14 in 10.0 mi South 8.1 mph - N/A   Mostly Cloudy